Year,Month,Day,Hour,Minute,Value (Times are PST for windgust in km/hr)
2017,02,17,00,00,4.80
2017,02,17,00,01,8.10
2017,02,17,00,02,9.60
2017,02,17,00,03,9.60
2017,02,17,00,04,6.40
2017,02,17,00,05,4.80
2017,02,17,00,06,1.60
2017,02,17,00,07,1.60
2017,02,17,00,08,3.20
2017,02,17,00,09,3.20
2017,02,17,00,10,3.20
2017,02,17,00,11,3.20
2017,02,17,00,12,1.60
2017,02,17,00,13,3.20
2017,02,17,00,14,3.20
2017,02,17,00,15,3.20
2017,02,17,00,16,1.60
2017,02,17,00,17,1.60
2017,02,17,00,18,1.60
2017,02,17,00,19,1.60
2017,02,17,00,20,1.60
2017,02,17,00,23,4.80
2017,02,17,00,24,6.40
2017,02,17,00,25,6.40
2017,02,17,00,26,8.10
2017,02,17,00,27,8.10
2017,02,17,00,28,6.40
2017,02,17,00,29,6.40
2017,02,17,00,30,11.30
2017,02,17,00,31,12.90
2017,02,17,00,32,14.50
2017,02,17,00,33,9.60
2017,02,17,00,34,8.10
2017,02,17,00,35,9.60
2017,02,17,00,36,8.10
2017,02,17,00,37,11.30
2017,02,17,00,38,11.30
2017,02,17,00,39,12.90
2017,02,17,00,40,12.90
2017,02,17,00,41,12.90
2017,02,17,00,42,12.90
2017,02,17,00,43,17.70
2017,02,17,00,44,9.60
2017,02,17,00,45,12.90
2017,02,17,00,46,9.60
2017,02,17,00,47,12.90
2017,02,17,00,48,9.60
2017,02,17,00,49,9.60
2017,02,17,00,50,12.90
2017,02,17,00,51,11.30
2017,02,17,00,52,11.30
2017,02,17,00,53,9.60
2017,02,17,00,54,9.60
2017,02,17,00,55,11.30
2017,02,17,00,56,12.90
2017,02,17,00,57,11.30
2017,02,17,00,58,12.90
2017,02,17,00,59,11.30
2017,02,17,01,00,9.60
2017,02,17,01,01,8.10
2017,02,17,01,02,9.60
2017,02,17,01,03,8.10
2017,02,17,01,04,11.30
2017,02,17,01,05,8.10
2017,02,17,01,06,6.40
2017,02,17,01,07,1.60
2017,02,17,01,33,4.80
2017,02,17,01,34,6.40
2017,02,17,01,35,8.10
2017,02,17,01,36,9.60
2017,02,17,01,37,9.60
2017,02,17,01,38,11.30
2017,02,17,01,39,12.90
2017,02,17,01,40,8.10
2017,02,17,01,41,8.10
2017,02,17,01,42,8.10
2017,02,17,01,43,8.10
2017,02,17,01,44,9.60
2017,02,17,01,45,3.20
2017,02,17,01,46,6.40
2017,02,17,01,47,6.40
2017,02,17,01,48,6.40
2017,02,17,01,49,3.20
2017,02,17,01,50,3.20
2017,02,17,01,51,1.60
2017,02,17,01,52,3.20
2017,02,17,01,53,6.40
2017,02,17,01,54,6.40
2017,02,17,01,55,6.40
2017,02,17,01,56,6.40
2017,02,17,01,57,6.40
2017,02,17,01,58,3.20
2017,02,17,01,59,3.20
2017,02,17,02,00,6.40
2017,02,17,02,01,8.10
2017,02,17,02,02,6.40
2017,02,17,02,03,6.40
2017,02,17,02,04,3.20
2017,02,17,02,05,3.20
2017,02,17,02,06,6.40
2017,02,17,02,07,6.40
2017,02,17,02,08,3.20
2017,02,17,02,09,6.40
2017,02,17,02,10,6.40
2017,02,17,02,11,6.40
2017,02,17,02,12,6.40
2017,02,17,02,13,3.20
2017,02,17,02,14,3.20
2017,02,17,02,15,3.20
2017,02,17,02,16,6.40
2017,02,17,02,17,6.40
2017,02,17,02,18,8.10
2017,02,17,02,19,3.20
2017,02,17,02,20,3.20
2017,02,17,02,21,6.40
2017,02,17,02,22,3.20
2017,02,17,02,23,3.20
2017,02,17,02,24,6.40
2017,02,17,02,25,6.40
2017,02,17,02,26,3.20
2017,02,17,02,27,6.40
2017,02,17,02,28,6.40
2017,02,17,02,29,6.40
2017,02,17,02,30,8.10
2017,02,17,02,31,6.40
2017,02,17,02,32,8.10
2017,02,17,02,33,9.60
2017,02,17,02,34,9.60
2017,02,17,02,35,12.90
2017,02,17,02,36,11.30
2017,02,17,02,37,12.90
2017,02,17,02,38,17.70
2017,02,17,02,39,17.70
2017,02,17,02,40,14.50
2017,02,17,02,41,12.90
2017,02,17,02,42,11.30
2017,02,17,02,43,8.10
2017,02,17,02,44,11.30
2017,02,17,02,45,8.10
2017,02,17,02,46,9.60
2017,02,17,02,47,9.60
2017,02,17,02,48,11.30
2017,02,17,02,49,9.60
2017,02,17,02,50,12.90
2017,02,17,02,51,16.10
2017,02,17,02,52,14.50
2017,02,17,02,53,14.50
2017,02,17,02,54,12.90
2017,02,17,02,55,11.30
2017,02,17,02,56,9.60
2017,02,17,02,57,9.60
2017,02,17,02,58,14.50
2017,02,17,02,59,12.90
2017,02,17,03,00,11.30
2017,02,17,03,01,9.60
2017,02,17,03,02,9.60
2017,02,17,03,03,9.60
2017,02,17,03,04,11.30
2017,02,17,03,05,11.30
2017,02,17,03,06,12.90
2017,02,17,03,07,9.60
2017,02,17,03,08,12.90
2017,02,17,03,09,8.10
2017,02,17,03,10,11.30
2017,02,17,03,11,11.30
2017,02,17,03,12,9.60
2017,02,17,03,13,11.30
2017,02,17,03,14,9.60
2017,02,17,03,15,12.90
2017,02,17,03,16,9.60
2017,02,17,03,17,11.30
2017,02,17,03,18,8.10
2017,02,17,03,19,9.60
2017,02,17,03,20,8.10
2017,02,17,03,21,8.10
2017,02,17,03,22,8.10
2017,02,17,03,23,6.40
2017,02,17,03,24,12.90
2017,02,17,03,25,12.90
2017,02,17,03,26,9.60
2017,02,17,03,27,12.90
2017,02,17,03,28,12.90
2017,02,17,03,29,9.60
2017,02,17,03,30,8.10
2017,02,17,03,31,12.90
2017,02,17,03,32,12.90
2017,02,17,03,33,12.90
2017,02,17,03,34,12.90
2017,02,17,03,35,9.60
2017,02,17,03,36,11.30
2017,02,17,03,37,12.90
2017,02,17,03,38,12.90
2017,02,17,03,39,12.90
2017,02,17,03,40,12.90
2017,02,17,03,41,11.30
2017,02,17,03,42,12.90
2017,02,17,03,43,11.30
2017,02,17,03,44,9.60
2017,02,17,03,45,8.10
2017,02,17,03,46,9.60
2017,02,17,03,47,9.60
2017,02,17,03,48,11.30
2017,02,17,03,49,11.30
2017,02,17,03,50,8.10
2017,02,17,03,51,11.30
2017,02,17,03,52,9.60
2017,02,17,03,53,9.60
2017,02,17,03,54,9.60
2017,02,17,03,55,12.90
2017,02,17,03,56,11.30
2017,02,17,03,57,9.60
2017,02,17,03,58,6.40
2017,02,17,03,59,11.30
2017,02,17,04,00,9.60
2017,02,17,04,01,8.10
2017,02,17,04,02,6.40
2017,02,17,04,03,8.10
2017,02,17,04,04,9.60
2017,02,17,04,05,6.40
2017,02,17,04,06,6.40
2017,02,17,04,08,3.20
2017,02,17,04,09,3.20
2017,02,17,04,10,3.20
2017,02,17,04,11,4.80
2017,02,17,04,12,6.40
2017,02,17,04,13,6.40
2017,02,17,04,14,8.10
2017,02,17,04,15,6.40
2017,02,17,04,16,4.80
2017,02,17,04,17,3.20
2017,02,17,04,18,4.80
2017,02,17,04,19,4.80
2017,02,17,04,20,4.80
2017,02,17,04,21,4.80
2017,02,17,04,22,4.80
2017,02,17,04,23,4.80
2017,02,17,04,24,4.80
2017,02,17,04,25,1.60
2017,02,17,04,26,1.60
2017,02,17,04,27,1.60
2017,02,17,04,28,1.60
2017,02,17,04,29,1.60
2017,02,17,04,30,1.60
2017,02,17,04,31,1.60
2017,02,17,04,32,3.20
2017,02,17,04,33,1.60
2017,02,17,04,34,3.20
2017,02,17,04,35,3.20
2017,02,17,04,36,1.60
2017,02,17,04,37,3.20
2017,02,17,04,38,3.20
2017,02,17,04,39,3.20
2017,02,17,04,40,3.20
2017,02,17,04,41,3.20
2017,02,17,04,42,3.20
2017,02,17,04,43,4.80
2017,02,17,04,44,4.80
2017,02,17,04,45,3.20
2017,02,17,04,46,3.20
2017,02,17,04,47,3.20
2017,02,17,04,48,3.20
2017,02,17,04,49,1.60
2017,02,17,04,51,1.60
2017,02,17,04,52,3.20
2017,02,17,04,53,1.60
2017,02,17,04,54,3.20
2017,02,17,04,55,1.60
2017,02,17,04,56,1.60
2017,02,17,04,57,1.60
2017,02,17,04,58,1.60
2017,02,17,07,51,4.80
2017,02,17,07,52,4.80
2017,02,17,07,53,8.10
2017,02,17,07,54,8.10
2017,02,17,07,55,6.40
2017,02,17,07,56,6.40
2017,02,17,07,57,4.80
2017,02,17,07,58,3.20
2017,02,17,07,59,4.80
2017,02,17,08,00,3.20
2017,02,17,08,01,3.20
2017,02,17,08,02,4.80
2017,02,17,08,03,3.20
2017,02,17,08,04,1.60
2017,02,17,08,05,1.60
2017,02,17,08,06,1.60
2017,02,17,08,07,1.60
2017,02,17,08,08,1.60
2017,02,17,08,10,1.60
2017,02,17,08,11,1.60
2017,02,17,08,12,1.60
2017,02,17,08,13,1.60
2017,02,17,08,16,1.60
2017,02,17,08,17,3.20
2017,02,17,08,18,1.60
2017,02,17,08,19,3.20
2017,02,17,08,20,3.20
2017,02,17,08,21,3.20
2017,02,17,08,22,3.20
2017,02,17,08,23,1.60
2017,02,17,08,24,1.60
2017,02,17,08,25,1.60
2017,02,17,08,28,1.60
2017,02,17,08,29,1.60
2017,02,17,08,30,1.60
2017,02,17,08,44,1.60
2017,02,17,08,45,1.60
2017,02,17,08,54,4.80
2017,02,17,08,55,3.20
2017,02,17,08,56,3.20
2017,02,17,08,57,4.80
2017,02,17,08,58,3.20
2017,02,17,08,59,3.20
2017,02,17,09,00,3.20
2017,02,17,09,01,3.20
2017,02,17,09,02,4.80
2017,02,17,09,03,4.80
2017,02,17,09,04,4.80
2017,02,17,09,05,3.20
2017,02,17,09,06,3.20
2017,02,17,09,07,6.40
2017,02,17,09,08,4.80
2017,02,17,09,09,4.80
2017,02,17,09,10,3.20
2017,02,17,09,11,1.60
2017,02,17,09,12,3.20
2017,02,17,09,13,3.20
2017,02,17,09,14,3.20
2017,02,17,09,15,3.20
2017,02,17,09,16,3.20
2017,02,17,09,17,3.20
2017,02,17,09,18,1.60
2017,02,17,09,19,3.20
2017,02,17,09,20,4.80
2017,02,17,09,21,4.80
2017,02,17,09,22,1.60
2017,02,17,09,23,3.20
2017,02,17,09,24,3.20
2017,02,17,09,25,1.60
2017,02,17,09,26,3.20
2017,02,17,09,27,3.20
2017,02,17,09,28,1.60
2017,02,17,09,32,1.60
2017,02,17,09,59,3.20
2017,02,17,10,00,3.20
2017,02,17,10,01,3.20
2017,02,17,10,02,3.20
2017,02,17,10,03,4.80
2017,02,17,10,04,3.20
2017,02,17,10,05,3.20
2017,02,17,10,06,3.20
2017,02,17,10,07,3.20
2017,02,17,10,08,1.60
2017,02,17,10,09,1.60
2017,02,17,10,10,3.20
2017,02,17,10,11,3.20
2017,02,17,10,12,3.20
2017,02,17,10,13,3.20
2017,02,17,10,14,3.20
2017,02,17,10,15,3.20
2017,02,17,10,16,1.60
2017,02,17,10,17,1.60
2017,02,17,10,18,3.20
2017,02,17,10,19,4.80
2017,02,17,10,20,3.20
2017,02,17,10,21,1.60
2017,02,17,10,22,4.80
2017,02,17,10,23,3.20
2017,02,17,10,24,3.20
2017,02,17,10,25,3.20
2017,02,17,10,26,1.60
2017,02,17,10,27,3.20
2017,02,17,10,28,3.20
2017,02,17,10,29,3.20
2017,02,17,10,30,3.20
2017,02,17,10,31,1.60
2017,02,17,10,32,4.80
2017,02,17,10,33,4.80
2017,02,17,10,34,4.80
2017,02,17,10,35,1.60
2017,02,17,10,36,3.20
2017,02,17,10,37,4.80
2017,02,17,10,38,4.80
2017,02,17,10,39,6.40
2017,02,17,10,40,4.80
2017,02,17,10,41,4.80
2017,02,17,10,42,4.80
2017,02,17,10,43,4.80
2017,02,17,10,44,3.20
2017,02,17,10,45,3.20
2017,02,17,10,46,3.20
2017,02,17,10,47,3.20
2017,02,17,10,48,4.80
2017,02,17,10,49,3.20
2017,02,17,10,50,4.80
2017,02,17,10,51,3.20
2017,02,17,10,52,3.20
2017,02,17,10,53,1.60
2017,02,17,10,54,1.60
2017,02,17,10,55,3.20
2017,02,17,10,56,1.60
2017,02,17,10,57,1.60
2017,02,17,10,58,1.60
2017,02,17,11,01,4.80
2017,02,17,11,02,1.60
2017,02,17,11,03,4.80
2017,02,17,11,04,4.80
2017,02,17,11,05,3.20
2017,02,17,11,06,3.20
2017,02,17,11,07,4.80
2017,02,17,11,08,3.20
2017,02,17,11,09,1.60
2017,02,17,11,10,4.80
2017,02,17,11,11,3.20
2017,02,17,11,12,1.60
2017,02,17,11,13,1.60
2017,02,17,11,14,3.20
2017,02,17,11,15,1.60
2017,02,17,11,17,3.20
2017,02,17,11,18,1.60
2017,02,17,11,24,4.80
2017,02,17,11,25,4.80
2017,02,17,11,26,3.20
2017,02,17,11,27,1.60
2017,02,17,11,28,3.20
2017,02,17,11,29,4.80
2017,02,17,11,30,3.20
2017,02,17,11,31,3.20
2017,02,17,11,32,1.60
2017,02,17,11,33,4.80
2017,02,17,11,34,4.80
2017,02,17,11,35,3.20
2017,02,17,11,36,1.60
2017,02,17,11,37,3.20
2017,02,17,11,38,1.60
2017,02,17,11,42,1.60
2017,02,17,11,43,6.40
2017,02,17,11,44,3.20
2017,02,17,11,45,4.80
2017,02,17,11,46,6.40
2017,02,17,11,47,3.20
2017,02,17,11,48,6.40
2017,02,17,11,49,4.80
2017,02,17,11,50,8.10
2017,02,17,11,51,8.10
2017,02,17,11,52,6.40
2017,02,17,11,53,8.10
2017,02,17,11,54,6.40
2017,02,17,11,55,6.40
2017,02,17,11,56,6.40
2017,02,17,11,57,8.10
2017,02,17,11,58,4.80
2017,02,17,11,59,4.80
2017,02,17,12,00,4.80
2017,02,17,12,01,4.80
2017,02,17,12,02,4.80
2017,02,17,12,03,3.20
2017,02,17,12,04,1.60
2017,02,17,12,05,4.80
2017,02,17,12,06,3.20
2017,02,17,12,07,4.80
2017,02,17,12,08,4.80
2017,02,17,12,09,3.20
2017,02,17,12,10,4.80
2017,02,17,12,11,6.40
2017,02,17,12,12,6.40
2017,02,17,12,13,8.10
2017,02,17,12,14,6.40
2017,02,17,12,15,4.80
2017,02,17,12,16,6.40
2017,02,17,12,17,6.40
2017,02,17,12,18,8.10
2017,02,17,12,19,8.10
2017,02,17,12,20,9.60
2017,02,17,12,21,6.40
2017,02,17,12,22,4.80
2017,02,17,12,23,3.20
2017,02,17,12,24,6.40
2017,02,17,12,25,6.40
2017,02,17,12,26,6.40
2017,02,17,12,27,6.40
2017,02,17,12,28,4.80
2017,02,17,12,29,4.80
2017,02,17,12,30,6.40
2017,02,17,12,31,8.10
2017,02,17,12,32,6.40
2017,02,17,12,33,4.80
2017,02,17,12,34,3.20
2017,02,17,12,35,4.80
2017,02,17,12,36,8.10
2017,02,17,12,37,8.10
2017,02,17,12,38,4.80
2017,02,17,12,39,3.20
2017,02,17,12,40,4.80
2017,02,17,12,41,6.40
2017,02,17,12,42,6.40
2017,02,17,12,43,4.80
2017,02,17,12,44,4.80
2017,02,17,12,45,4.80
2017,02,17,12,46,3.20
2017,02,17,12,47,3.20
2017,02,17,12,48,4.80
2017,02,17,12,49,3.20
2017,02,17,12,50,3.20
2017,02,17,12,51,3.20
2017,02,17,12,52,3.20
2017,02,17,12,53,4.80
2017,02,17,12,54,9.60
2017,02,17,12,55,8.10
2017,02,17,12,56,6.40
2017,02,17,12,57,3.20
2017,02,17,12,58,3.20
2017,02,17,12,59,6.40
2017,02,17,13,00,4.80
2017,02,17,13,01,4.80
2017,02,17,13,02,8.10
2017,02,17,13,03,4.80
2017,02,17,13,04,4.80
2017,02,17,13,05,4.80
2017,02,17,13,06,1.60
2017,02,17,13,07,4.80
2017,02,17,13,08,3.20
2017,02,17,13,09,3.20
2017,02,17,13,10,3.20
2017,02,17,13,11,3.20
2017,02,17,13,12,1.60
2017,02,17,13,13,4.80
2017,02,17,13,14,6.40
2017,02,17,13,15,4.80
2017,02,17,13,16,4.80
2017,02,17,13,17,4.80
2017,02,17,13,18,6.40
2017,02,17,13,19,3.20
2017,02,17,13,20,4.80
2017,02,17,13,21,3.20
2017,02,17,13,22,3.20
2017,02,17,13,23,3.20
2017,02,17,13,24,3.20
2017,02,17,13,25,4.80
2017,02,17,13,26,4.80
2017,02,17,13,27,6.40
2017,02,17,13,28,4.80
2017,02,17,13,29,4.80
2017,02,17,13,30,3.20
2017,02,17,13,31,4.80
2017,02,17,13,32,1.60
2017,02,17,13,33,1.60
2017,02,17,13,34,1.60
2017,02,17,13,35,4.80
2017,02,17,13,36,6.40
2017,02,17,13,37,6.40
2017,02,17,13,38,6.40
2017,02,17,13,39,3.20
2017,02,17,13,40,3.20
2017,02,17,13,41,3.20
2017,02,17,13,42,4.80
2017,02,17,13,43,3.20
2017,02,17,13,44,3.20
2017,02,17,13,45,4.80
2017,02,17,13,46,3.20
2017,02,17,13,47,3.20
2017,02,17,13,48,3.20
2017,02,17,13,49,1.60
2017,02,17,13,50,1.60
2017,02,17,13,52,3.20
2017,02,17,13,53,3.20
2017,02,17,13,54,3.20
2017,02,17,13,55,3.20
2017,02,17,13,56,1.60
2017,02,17,13,57,4.80
2017,02,17,13,58,6.40
2017,02,17,13,59,6.40
2017,02,17,14,00,3.20
2017,02,17,14,01,4.80
2017,02,17,14,02,3.20
2017,02,17,14,03,3.20
2017,02,17,14,04,3.20
2017,02,17,14,05,3.20
2017,02,17,14,06,1.60
2017,02,17,14,07,1.60
2017,02,17,14,08,4.80
2017,02,17,14,09,4.80
2017,02,17,14,10,3.20
2017,02,17,14,11,1.60
2017,02,17,14,12,3.20
2017,02,17,14,13,4.80
2017,02,17,14,14,3.20
2017,02,17,14,15,3.20
2017,02,17,14,16,4.80
2017,02,17,14,17,4.80
2017,02,17,14,18,4.80
2017,02,17,14,19,4.80
2017,02,17,14,20,3.20
2017,02,17,14,21,4.80
2017,02,17,14,22,4.80
2017,02,17,14,23,4.80
2017,02,17,14,25,3.20
2017,02,17,14,26,4.80
2017,02,17,14,27,3.20
2017,02,17,14,28,3.20
2017,02,17,14,29,1.60
2017,02,17,14,30,3.20
2017,02,17,14,31,3.20
2017,02,17,14,32,3.20
2017,02,17,14,33,3.20
2017,02,17,14,34,4.80
2017,02,17,14,35,4.80
2017,02,17,14,36,4.80
2017,02,17,14,37,3.20
2017,02,17,14,38,3.20
2017,02,17,14,39,3.20
2017,02,17,14,40,3.20
2017,02,17,14,41,4.80
2017,02,17,14,42,4.80
2017,02,17,14,43,4.80
2017,02,17,14,44,6.40
2017,02,17,14,45,3.20
2017,02,17,14,46,4.80
2017,02,17,14,47,4.80
2017,02,17,14,48,4.80
2017,02,17,14,49,4.80
2017,02,17,14,50,4.80
2017,02,17,14,51,4.80
2017,02,17,14,52,3.20
2017,02,17,14,53,4.80
2017,02,17,14,54,4.80
2017,02,17,14,55,6.40
2017,02,17,14,56,4.80
2017,02,17,14,57,4.80
2017,02,17,14,58,4.80
2017,02,17,14,59,4.80
2017,02,17,15,00,4.80
2017,02,17,15,01,3.20
2017,02,17,15,02,3.20
2017,02,17,15,05,3.20
2017,02,17,15,06,3.20
2017,02,17,15,09,3.20
2017,02,17,15,10,3.20
2017,02,17,15,11,1.60
2017,02,17,15,12,1.60
2017,02,17,15,13,3.20
2017,02,17,15,14,3.20
2017,02,17,15,15,3.20
2017,02,17,15,16,4.80
2017,02,17,15,17,3.20
2017,02,17,15,18,1.60
2017,02,17,15,19,4.80
2017,02,17,15,20,6.40
2017,02,17,15,21,4.80
2017,02,17,15,22,4.80
2017,02,17,15,23,3.20
2017,02,17,15,24,3.20
2017,02,17,15,25,3.20
2017,02,17,15,26,3.20
2017,02,17,15,27,3.20
2017,02,17,15,28,4.80
2017,02,17,15,29,6.40
2017,02,17,15,30,4.80
2017,02,17,15,31,4.80
2017,02,17,15,32,3.20
2017,02,17,15,33,3.20
2017,02,17,15,34,6.40
2017,02,17,15,35,4.80
2017,02,17,15,36,3.20
2017,02,17,15,37,3.20
2017,02,17,15,38,4.80
2017,02,17,15,39,6.40
2017,02,17,15,40,3.20
2017,02,17,15,41,4.80
2017,02,17,15,42,4.80
2017,02,17,15,43,3.20
2017,02,17,15,44,3.20
2017,02,17,15,45,4.80
2017,02,17,15,46,4.80
2017,02,17,15,47,4.80
2017,02,17,15,48,1.60
2017,02,17,15,50,1.60
2017,02,17,15,51,3.20
2017,02,17,15,52,4.80
2017,02,17,15,53,4.80
2017,02,17,15,54,4.80
2017,02,17,15,55,4.80
2017,02,17,15,56,4.80
2017,02,17,15,57,3.20
2017,02,17,15,58,3.20
2017,02,17,15,59,3.20
2017,02,17,16,00,3.20
2017,02,17,16,01,4.80
2017,02,17,16,02,3.20
2017,02,17,16,03,4.80
2017,02,17,16,04,4.80
2017,02,17,16,05,4.80
2017,02,17,16,06,3.20
2017,02,17,16,07,4.80
2017,02,17,16,08,4.80
2017,02,17,16,09,4.80
2017,02,17,16,10,6.40
2017,02,17,16,11,4.80
2017,02,17,16,12,3.20
2017,02,17,16,13,3.20
2017,02,17,16,14,3.20
2017,02,17,16,15,1.60
2017,02,17,16,16,4.80
2017,02,17,16,17,3.20
2017,02,17,16,18,3.20
2017,02,17,16,19,6.40
2017,02,17,16,20,3.20
2017,02,17,16,21,3.20
2017,02,17,16,22,3.20
2017,02,17,16,23,1.60
2017,02,17,16,24,3.20
2017,02,17,16,25,1.60
2017,02,17,16,26,1.60
2017,02,17,16,35,4.80
2017,02,17,16,36,4.80
2017,02,17,16,37,4.80
2017,02,17,16,38,4.80
2017,02,17,16,39,3.20
2017,02,17,16,40,1.60
2017,02,17,16,41,3.20
2017,02,17,16,42,3.20
2017,02,17,16,43,3.20
2017,02,17,16,44,6.40
2017,02,17,16,45,4.80
2017,02,17,16,46,4.80
2017,02,17,16,47,4.80
2017,02,17,16,48,4.80
2017,02,17,16,49,4.80
2017,02,17,16,50,3.20
2017,02,17,16,51,3.20
2017,02,17,16,52,1.60
2017,02,17,16,53,4.80
2017,02,17,16,54,3.20
2017,02,17,16,55,4.80
2017,02,17,16,56,4.80
2017,02,17,16,57,3.20
2017,02,17,16,58,8.10
2017,02,17,16,59,6.40
2017,02,17,17,00,3.20
2017,02,17,17,01,3.20
2017,02,17,17,02,6.40
2017,02,17,17,03,6.40
2017,02,17,17,04,6.40
2017,02,17,17,05,3.20
2017,02,17,17,06,4.80
2017,02,17,17,07,3.20
2017,02,17,17,08,3.20
2017,02,17,17,09,3.20
2017,02,17,17,10,3.20
2017,02,17,17,11,3.20
2017,02,17,17,12,4.80
2017,02,17,17,13,4.80
2017,02,17,17,14,6.40
2017,02,17,17,15,6.40
2017,02,17,17,16,6.40
2017,02,17,17,17,6.40
2017,02,17,17,18,6.40
2017,02,17,17,19,6.40
2017,02,17,17,20,8.10
2017,02,17,17,21,8.10
2017,02,17,17,22,6.40
2017,02,17,17,23,6.40
2017,02,17,17,24,6.40
2017,02,17,17,25,8.10
2017,02,17,17,26,6.40
2017,02,17,17,27,3.20
2017,02,17,17,28,8.10
2017,02,17,17,29,6.40
2017,02,17,17,30,6.40
2017,02,17,17,31,8.10
2017,02,17,17,32,8.10
2017,02,17,17,33,6.40
2017,02,17,17,34,8.10
2017,02,17,17,35,8.10
2017,02,17,17,36,6.40
2017,02,17,17,37,6.40
2017,02,17,17,38,4.80
2017,02,17,17,39,8.10
2017,02,17,17,40,8.10
2017,02,17,17,41,6.40
2017,02,17,17,42,6.40
2017,02,17,17,43,6.40
2017,02,17,17,44,6.40
2017,02,17,17,45,6.40
2017,02,17,17,46,6.40
2017,02,17,17,47,6.40
2017,02,17,17,48,6.40
2017,02,17,17,49,6.40
2017,02,17,17,50,6.40
2017,02,17,17,51,6.40
2017,02,17,17,52,8.10
2017,02,17,17,53,6.40
2017,02,17,17,54,6.40
2017,02,17,17,55,8.10
2017,02,17,17,56,9.60
2017,02,17,17,57,8.10
2017,02,17,17,58,6.40
2017,02,17,17,59,6.40
2017,02,17,18,00,6.40
2017,02,17,18,01,6.40
2017,02,17,18,02,6.40
2017,02,17,18,03,6.40
2017,02,17,18,04,8.10
2017,02,17,18,05,8.10
2017,02,17,18,06,8.10
2017,02,17,18,07,6.40
2017,02,17,18,08,6.40
2017,02,17,18,09,8.10
2017,02,17,18,10,8.10
2017,02,17,18,11,8.10
2017,02,17,18,12,8.10
2017,02,17,18,13,8.10
2017,02,17,18,14,8.10
2017,02,17,18,15,6.40
2017,02,17,18,16,8.10
2017,02,17,18,17,6.40
2017,02,17,18,18,6.40
2017,02,17,18,19,6.40
2017,02,17,18,20,6.40
2017,02,17,18,21,6.40
2017,02,17,18,22,6.40
2017,02,17,18,23,3.20
2017,02,17,18,24,3.20
2017,02,17,18,25,3.20
2017,02,17,18,26,3.20
2017,02,17,18,28,1.60
2017,02,17,18,29,1.60
2017,02,17,18,33,3.20
2017,02,17,18,34,6.40
2017,02,17,18,35,3.20
2017,02,17,18,36,6.40
2017,02,17,18,37,3.20
2017,02,17,18,38,3.20
2017,02,17,18,39,3.20
2017,02,17,18,40,3.20
2017,02,17,18,41,3.20
2017,02,17,18,42,3.20
2017,02,17,18,43,3.20
2017,02,17,18,44,6.40
2017,02,17,18,45,6.40
2017,02,17,18,46,6.40
2017,02,17,18,47,6.40
2017,02,17,18,48,6.40
2017,02,17,18,49,6.40
2017,02,17,18,50,3.20
2017,02,17,18,51,6.40
2017,02,17,18,52,6.40
2017,02,17,18,53,6.40
2017,02,17,18,54,3.20
2017,02,17,18,55,3.20
2017,02,17,18,56,6.40
2017,02,17,18,57,6.40
2017,02,17,18,58,6.40
2017,02,17,18,59,6.40
2017,02,17,19,00,3.20
2017,02,17,19,01,3.20
2017,02,17,19,02,3.20
2017,02,17,19,03,3.20
2017,02,17,19,04,3.20
2017,02,17,19,05,3.20
2017,02,17,19,06,3.20
2017,02,17,19,07,3.20
2017,02,17,19,08,3.20
2017,02,17,19,09,3.20
2017,02,17,19,10,3.20
2017,02,17,19,11,3.20
2017,02,17,19,12,3.20
2017,02,17,19,13,3.20
2017,02,17,19,14,3.20
2017,02,17,19,15,3.20
2017,02,17,19,16,3.20
2017,02,17,19,17,3.20
2017,02,17,19,18,3.20
2017,02,17,19,19,3.20
2017,02,17,19,20,3.20
2017,02,17,19,21,3.20
2017,02,17,19,22,3.20
2017,02,17,19,23,1.60
2017,02,17,19,24,1.60
2017,02,17,19,25,1.60
2017,02,17,19,26,1.60
2017,02,17,19,39,6.40
2017,02,17,19,40,6.40
2017,02,17,19,41,3.20
2017,02,17,19,42,3.20
2017,02,17,19,43,3.20
2017,02,17,19,44,3.20
2017,02,17,19,45,1.60
2017,02,17,19,46,3.20
2017,02,17,19,47,3.20
2017,02,17,19,48,3.20
2017,02,17,19,49,3.20
2017,02,17,19,50,3.20
2017,02,17,19,51,1.60
2017,02,17,19,52,3.20
2017,02,17,19,53,3.20
2017,02,17,19,54,3.20
2017,02,17,19,55,3.20
2017,02,17,19,56,3.20
2017,02,17,19,57,3.20
2017,02,17,19,58,3.20
2017,02,17,19,59,3.20
2017,02,17,20,00,3.20
2017,02,17,20,01,1.60
2017,02,17,20,02,1.60
2017,02,17,20,03,3.20
2017,02,17,20,04,1.60
2017,02,17,20,05,1.60
2017,02,17,20,06,1.60
2017,02,17,20,07,3.20
2017,02,17,20,08,3.20
2017,02,17,20,09,6.40
2017,02,17,20,10,6.40
2017,02,17,20,11,3.20
2017,02,17,20,12,1.60
2017,02,17,20,57,3.20
2017,02,17,20,58,1.60
2017,02,17,20,59,1.60
2017,02,17,21,00,1.60
2017,02,17,21,03,1.60
2017,02,17,21,04,1.60
2017,02,17,21,05,3.20
2017,02,17,21,06,1.60
2017,02,17,21,07,1.60
2017,02,17,21,08,3.20
2017,02,17,21,09,3.20
2017,02,17,21,10,1.60
2017,02,17,21,11,3.20
2017,02,17,21,12,3.20
2017,02,17,21,13,3.20
2017,02,17,21,14,3.20
2017,02,17,21,15,4.80
2017,02,17,21,16,3.20
2017,02,17,21,17,1.60
2017,02,17,21,18,1.60
2017,02,17,22,52,3.20
2017,02,17,22,53,3.20
2017,02,17,22,54,4.80
2017,02,17,22,55,3.20
2017,02,17,22,56,4.80
2017,02,17,22,57,3.20
2017,02,17,22,58,3.20
2017,02,17,22,59,4.80
2017,02,17,23,00,3.20
2017,02,17,23,01,3.20
2017,02,17,23,02,3.20
2017,02,17,23,03,3.20
2017,02,17,23,04,3.20
2017,02,17,23,05,4.80
2017,02,17,23,06,4.80
2017,02,17,23,07,4.80
2017,02,17,23,08,3.20
2017,02,17,23,09,3.20
2017,02,17,23,10,3.20
2017,02,17,23,11,3.20
2017,02,17,23,12,3.20
2017,02,17,23,13,1.60
2017,02,17,23,14,3.20
2017,02,17,23,15,3.20
2017,02,17,23,16,3.20
2017,02,17,23,17,3.20
2017,02,17,23,18,3.20
2017,02,17,23,19,3.20
2017,02,17,23,20,3.20
2017,02,17,23,21,3.20
2017,02,17,23,22,3.20
2017,02,17,23,23,3.20
2017,02,17,23,24,1.60
2017,02,17,23,26,4.80
2017,02,17,23,27,4.80
2017,02,17,23,28,3.20
2017,02,17,23,29,3.20
2017,02,17,23,30,3.20
2017,02,17,23,31,3.20
2017,02,17,23,32,3.20
2017,02,17,23,33,1.60
2017,02,17,23,34,3.20
2017,02,17,23,35,3.20
2017,02,17,23,36,3.20
2017,02,17,23,37,3.20
2017,02,17,23,38,3.20
2017,02,17,23,39,3.20
2017,02,17,23,40,3.20
2017,02,17,23,41,3.20
2017,02,17,23,42,1.60
2017,02,17,23,43,3.20
2017,02,17,23,44,3.20
2017,02,17,23,45,3.20
2017,02,17,23,46,3.20
2017,02,17,23,47,3.20
2017,02,17,23,48,3.20
2017,02,17,23,49,3.20
2017,02,17,23,50,3.20
2017,02,17,23,51,1.60
2017,02,17,23,52,1.60
2017,02,17,23,53,3.20
2017,02,17,23,54,1.60
2017,02,17,23,55,3.20
2017,02,17,23,56,1.60
2017,02,17,23,57,3.20
2017,02,17,23,58,3.20
2017,02,17,23,59,3.20
